Probability
0 0 0 0 0 0 0 0 0 0 0 0 0 0 0 0 0 0 0 0 0 0 0 0 0 0 0 0 0 0 0 0 0 0 0 0 0 0 0 0 0 0 0
0 0 0 0 0 0 0 0 0 0 0 0 0 0 0 0 0 0 0 0 0 0 0 0 0 0 0 0 0 0 0 0 0 0 0 0 0 0 0 0 0 0 0
0 0 0 0 0 0 0 0 0 0 0 0 0 0 0 0 0 0 0 0 0 0 0 0 0 0 0 0 0 0 0 0 0 0 0 0 0 0 0 0 0 0 0
1 0 0 0 0 0 0 0 0 0 0 0 0 0 0 0 0 0 0 0 0 0 0 0 0 0 0 0 0 0 0 0 0 0 0 0 0 0 0 0 0 0 0
3 1 0 0 0 0 0 0 0 0 0 0 0 0 0 0 0 0 0 0 0 0 0 0 0 0 0 0 0 0 0 0 0 0 0 0 0 0 0 0 0 0 0
3 1 0 0 0 0 0 0 0 0 0 0 0 0 0 0 0 0 0 0 0 0 0 0 0 0 0 0 0 0 0 0 0 0 0 0 0 0 0 0 0 0 0
1 0 0 0 0 0 0 0 0 0 0 0 0 0 0 0 0 0 0 0 0 0 0 0 0 0 0 0 0 0 0 0 0 0 0 0 0 0 0 0 0 0 0
0 0 0 0 0 0 0 0 0 0 0 0 0 0 0 0 0 0 0 0 0 0 0 0 0 0 0 0 0 0 0 0 0 0 0 0 0 0 0 0 0 0 0
0 0 0 0 0 0 0 0 0 0 0 0 0 0 0 0 0 0 0 0 0 0 0 0 0 0 0 0 0 0 0 0 0 0 0 0 0 0 0 0 0 0 0
0 0 0 0 0 0 0 0 0 0 0 0 0 0 0 0 0 0 0 0 0 0 0 0 0 0 0 0 0 0 0 0 0 0 0 0 0 0 0 0 0 0 0
0 0 0 0 0 0 0 0 0 0 0 0 0 0 0 0 0 0 0 0 0 0 0 0 0 0 0 0 0 0 0 0 0 0 0 0 0 0 0 0 0 0 0
0 0 0 0 0 0 0 0 0 0 0 0 0 0 0 0 0 0 0 0 0 0 0 0 0 0 0 0 0 0 0 0 0 0 0 0 0 0 0 0 0 0 0
0 0 0 0 0 0 0 0 0 0 0 0 0 0 0 0 0 0 0 0 0 0 0 0 0 0 0 0 0 0 0 0 0 0 0 0 0 0 0 0 0 0 0
0 0 0 0 0 0 0 0 0 0 0 0 0 0 0 0 0 0 0 0 0 0 0 0 0 0 0 0 0 0 0 0 0 0 0 0 0 0 0 0 0 0 0
0 0 0 0 0 0 0 0 0 0 0 0 0 0 0 0 0 0 0 0 0 0 0 0 0 0 0 0 0 0 0 0 0 0 0 0 0 0 0 0 0 0 0
0 0 0 0 0 0 0 0 0 0 0 0 0 0 0 0 0 0 0 0 0 0 0 0 0 0 0 0 0 0 0 0 0 0 0 0 0 0 0 0 0 0 0
0 0 0 0 0 0 0 0 0 0 0 0 0 0 0 0 0 0 0 0 0 0 0 0 0 0 0 0 0 0 0 0 0 0 0 0 0 0 0 0 0 0 0
0 0 0 0 0 0 0 0 0 0 0 0 0 0 0 0 0 0 0 0 0 0 0 0 0 0 0 0 0 0 0 0 0 0 0 0 0 0 0 0 0 0 0
0 0 0 0 0 0 0 0 0 0 0 0 0 0 0 0 0 0 0 0 0 0 0 0 0 0 0 0 0 0 0 0 0 0 0 0 0 0 0 0 0 0 0
0 0 0 0 0 0 0 0 0 0 0 0 0 0 0 0 0 0 0 0 0 0 0 0 0 0 0 0 0 0 0 0 0 0 0 0 0 0 0 0 0 0 0
0 0 0 0 0 0 0 0 0 0 0 0 0 0 0 0 0 0 0 0 0 0 0 0 0 0 0 0 0 0 0 0 0 0 0 0 0 0 0 0 0 0 0
0 0 0 0 0 0 0 0 0 0 0 0 0 0 0 0 0 0 0 0 0 0 0 0 0 0 0 0 0 0 0 0 0 0 0 0 0 0 0 0 0 0 0
0 0 0 0 0 0 0 0 0 0 0 0 0 0 0 0 0 0 0 0 0 0 0 0 0 0 0 0 0 0 0 0 0 0 0 0 0 0 0 0 0 0 0
0 0 0 0 0 0 0 0 0 0 0 0 0 0 0 0 0 0 0 0 0 0 0 0 0 0 0 0 0 0 0 0 0 0 0 0 0 0 0 0 0 0 0
0 0 0 0 0 0 0 0 0 0 0 0 0 0 0 0 0 0 0 0 0 0 0 0 0 0 0 0 0 0 0 0 0 0 0 0 0 0 0 0 0 0 0
0 0 0 0 0 0 0 0 0 0 0 0 0 0 0 0 0 0 0 0 0 0 0 0 0 0 0 0 0 0 0 0 0 0 0 0 0 0 0 0 0 0 0
Wind_Speed
4 4 3 3 3 4 3 3 3 4 4 4 3 3 4 4 3 5 5 12 13 12 11 11 11 12 12 12 12 12 12 12 13 13 13 13 14 14 14 14 14 14 14
4 4 4 4 4 4 3 3 4 3 3 3 2 2 3 3 3 5 5 8 12 11 10 10 11 11 12 12 12 12 12 12 13 13 14 14 14 14 15 15 15 15 15
6 5 5 4 4 4 4 4 5 3 3 2 1 2 2 2 2 3 6 5 5 8 8 8 9 10 11 12 13 13 13 13 13 14 14 15 15 15 16 16 16 16 16
7 6 5 4 4 4 4 4 3 3 3 3 2 2 2 1 1 2 4 5 4 3 4 4 7 9 11 12 13 13 13 13 13 14 15 15 16 16 17 17 17 17 17
9 7 5 5 5 4 4 4 4 3 3 2 2 1 1 1 1 2 3 5 4 3 1 1 5 8 10 12 13 13 13 13 14 14 15 16 17 17 18 18 18 19 19
9 8 6 6 6 5 4 4 4 3 3 1 2 1 0 1 1 2 2 3 3 3 2 0 2 4 10 13 14 13 13 14 14 15 16 17 18 19 19 20 20 20 21
9 9 7 7 6 5 5 6 5 4 2 2 2 2 1 1 2 2 2 1 2 3 2 1 1 1 3 10 13 13 13 14 16 17 17 18 19 20 21 22 22 23 23
9 8 8 7 6 6 6 5 5 3 2 2 2 1 2 2 2 2 2 2 2 1 1 1 1 2 2 2 8 13 13 15 17 18 19 20 22 22 23 24 24 24 24
8 8 9 8 7 6 5 5 4 4 3 1 3 2 2 1 3 3 3 2 1 0 1 1 3 3 3 3 4 7 13 16 17 19 21 23 24 24 25 25 25 25 25
8 8 9 9 8 7 6 5 5 3 3 2 1 2 2 2 1 3 4 2 1 1 3 3 3 3 4 4 6 11 14 17 19 22 24 25 26 26 26 26 26 26 26
7 9 9 9 8 7 6 6 5 4 3 3 2 1 1 1 2 2 4 4 4 3 3 4 4 4 4 4 3 8 15 18 21 24 26 27 27 27 27 27 27 27 27
6 8 9 9 8 7 7 6 5 5 4 3 2 1 1 0 0 1 3 3 4 4 5 5 5 5 4 4 6 12 16 19 22 25 27 28 28 28 28 28 28 28 28
8 8 9 9 8 7 6 5 5 4 4 3 2 1 1 0 0 1 2 4 4 4 5 4 3 3 4 2 3 14 16 21 24 26 28 29 28 28 28 28 28 28 28
8 9 9 9 9 8 7 5 4 3 3 2 1 1 0 1 1 1 2 2 4 4 3 5 4 4 3 3 9 19 10 22 26 28 29 29 29 29 28 28 29 29 29
10 10 10 10 9 7 6 5 3 3 3 2 1 1 1 1 1 1 1 2 3 5 5 4 4 4 6 5 12 9 7 19 27 28 29 29 29 29 29 29 29 29 29
11 12 11 10 9 7 6 4 4 3 2 1 1 1 2 1 1 1 2 3 3 5 8 4 4 6 7 9 17 11 9 26 26 28 29 29 29 29 30 30 30 30 30
12 11 11 10 8 6 5 4 3 3 1 1 1 2 3 2 2 2 2 3 4 4 10 8 5 6 8 9 10 9 10 10 11 25 28 29 29 29 30 30 30 30 30
11 11 10 9 7 6 4 4 3 2 1 2 2 2 3 2 3 3 3 4 4 5 8 12 7 6 8 9 10 10 12 12 9 21 27 28 29 29 30 30 30 30 30
11 10 9 8 7 5 4 3 2 1 1 2 3 3 3 3 4 3 4 4 4 6 6 9 10 7 7 9 10 11 11 9 12 16 22 25 27 29 30 30 30 30 30
11 10 9 7 6 5 4 3 3 2 3 3 3 4 4 4 5 4 4 5 5 6 6 8 10 9 8 8 8 8 10 6 9 12 17 20 24 28 29 30 31 30 30
11 9 8 7 5 4 4 4 4 4 4 5 5 5 4 6 9 8 7 5 5 5 6 8 10 11 9 8 8 7 11 10 9 9 10 10 11 11 14 21 25 27 29
9 8 7 6 4 3 6 4 4 3 4 5 6 5 5 6 10 14 16 16 14 10 9 9 10 12 12 10 8 9 11 13 13 5 7 12 10 12 11 9 21 29 29
8 7 5 4 3 5 4 3 6 4 5 6 6 5 5 5 10 5 11 16 14 20 21 15 13 12 12 10 9 11 12 14 15 10 10 15 10 12 10 13 26 30 31
6 5 4 3 2 3 3 3 7 5 5 6 6 5 5 5 6 10 7 6 7 10 15 12 10 11 11 10 11 14 14 12 12 9 7 13 13 13 13 10 22 29 28
5 4 3 2 1 2 2 3 7 3 4 6 6 6 8 6 14 18 10 8 9 9 16 21 23 22 26 27 21 10 8 10 14 11 5 7 9 12 13 12 13 21 22
4 3 2 1 1 1 1 5 7 2 4 5 5 6 13 15 18 19 10 9 12 11 10 11 14 16 14 15 20 10 7 10 12 10 3 4 6 9 11 6 5 8 13
Wind_Direction
165 159 148 140 132 126 124 109 96 88 73 54 43 35 21 21 58 94 85 82 79 74 67 59 49 37 26 15 7 1 355 350 347 344 341 338 336 334 332 328 326 324 323
164 144 131 119 107 102 104 106 92 88 75 60 32 30 30 24 43 102 112 91 87 80 67 55 41 28 16 5 357 351 346 343 340 337 334 331 329 326 324 320 318 315 313
150 137 125 118 116 113 103 87 82 77 72 36 14 50 53 46 21 103 123 118 104 92 78 53 31 17 6 357 350 345 342 339 336 333 330 327 325 322 319 316 313 310 307
143 131 126 126 123 109 99 95 91 85 71 34 9 14 18 64 357 86 109 116 117 111 92 56 24 5 355 348 343 340 339 337 335 331 328 326 323 320 316 313 311 308 304
139 131 130 130 123 111 106 102 69 72 68 27 324 309 22 46 97 100 110 115 111 107 105 4 10 354 344 339 335 334 334 334 333 329 326 323 320 317 314 311 308 305 301
138 131 131 130 121 116 114 110 105 75 61 358 308 307 191 123 154 144 136 136 153 172 187 46 24 352 344 334 330 328 328 329 329 326 324 321 318 315 312 308 305 302 299
133 132 133 129 130 130 135 131 122 104 51 353 0 337 298 216 192 162 160 158 194 194 184 177 71 21 333 329 325 319 323 325 325 323 320 318 316 313 310 307 303 300 297
129 133 133 133 130 124 116 113 116 115 84 31 55 20 357 330 300 221 182 199 223 187 182 44 10 326 312 302 301 311 319 320 320 318 317 316 314 311 307 303 300 298 295
125 130 132 128 125 120 120 118 118 126 140 82 59 92 110 283 322 312 251 216 193 229 283 301 289 282 293 291 289 303 308 314 313 313 314 314 312 307 304 302 299 297 295
127 129 131 130 125 120 121 121 111 114 125 135 110 69 113 127 98 317 320 317 328 306 294 290 291 280 276 275 279 295 304 308 310 311 312 311 308 305 303 301 300 298 297
131 132 132 128 125 122 119 116 115 107 106 121 124 119 109 106 181 199 281 303 320 313 315 300 284 272 264 260 258 280 297 305 307 308 308 306 304 303 303 303 302 301 299
136 133 130 125 121 119 119 120 118 112 101 96 92 94 105 125 305 236 270 293 294 287 298 284 276 266 259 258 271 296 304 305 304 304 303 302 302 303 304 304 302 299 297
146 143 136 128 123 120 119 120 120 122 116 114 111 90 63 56 280 267 274 285 291 294 283 275 286 301 297 305 307 310 305 305 304 303 302 302 302 303 303 300 298 297 295
145 140 133 125 123 123 126 126 125 133 124 133 151 132 108 288 280 251 253 292 302 288 279 292 313 299 322 324 308 314 308 306 304 302 301 302 302 301 300 298 297 296 294
140 136 129 126 127 127 130 138 139 141 138 158 169 169 219 249 249 251 254 239 257 286 290 277 288 326 329 311 306 305 293 302 303 301 302 302 300 299 298 298 297 295 293
139 135 128 128 126 125 130 128 124 122 126 167 156 185 264 262 269 266 260 259 248 267 282 277 293 297 305 308 305 304 297 301 301 300 299 298 299 298 298 297 296 294 293
135 131 129 127 127 130 130 129 135 135 164 243 240 232 251 260 266 272 277 274 268 266 281 286 280 292 296 294 295 288 288 285 287 296 299 299 298 298 298 297 295 294 292
127 125 124 122 123 120 118 121 126 138 212 255 270 275 277 282 281 275 270 268 270 271 282 294 295 293 290 290 290 289 296 295 291 297 299 300 301 300 298 297 295 295 293
118 114 112 112 111 107 98 85 73 26 307 282 271 265 268 275 277 272 275 278 279 288 284 293 298 294 290 290 291 290 289 290 294 298 302 301 299 298 297 299 299 298 297
111 106 103 103 103 102 96 70 36 349 316 301 288 270 259 254 257 262 273 271 276 279 281 288 293 294 289 285 286 295 297 285 291 298 295 294 295 299 298 298 297 296 295
104 101 101 98 96 101 86 60 18 342 330 315 303 289 276 281 287 288 285 273 277 278 284 289 291 293 294 296 295 294 299 299 289 283 284 288 291 288 289 291 293 292 291
99 99 102 105 106 100 90 48 355 334 322 312 302 296 295 297 297 302 306 305 302 300 298 292 293 293 295 293 292 294 298 300 297 273 287 294 287 286 285 281 289 295 296
102 104 107 113 112 118 108 29 341 331 306 292 289 290 294 296 308 299 295 299 299 299 299 296 293 292 292 291 290 291 289 288 290 293 295 293 290 288 286 290 296 297 298
106 108 106 98 97 141 122 18 340 336 306 297 296 295 293 290 291 298 284 286 280 290 291 291 283 283 288 287 280 286 288 289 286 281 274 287 293 292 293 288 293 292 293
100 100 98 85 63 110 118 4 346 325 308 309 312 318 318 301 303 309 311 300 294 290 299 299 299 300 300 301 302 301 299 299 297 295 279 273 287 300 294 285 282 289 295
103 103 92 48 35 53 2 345 339 322 311 310 311 311 314 311 310 314 311 301 301 298 295 298 299 299 296 295 303 300 297 297 296 297 275 282 294 310 301 270 262 285 291